Year,Month,Day,Hour,Minute,Value (Times are PST for temperature in C)
2011,08,20,00,00,12.70
2011,08,20,00,01,12.70
2011,08,20,00,02,12.60
2011,08,20,00,03,12.60
2011,08,20,00,04,12.60
2011,08,20,00,05,12.60
2011,08,20,00,06,12.50
2011,08,20,00,07,12.50
2011,08,20,00,08,12.50
2011,08,20,00,09,12.50
2011,08,20,00,10,12.50
2011,08,20,00,11,12.50
2011,08,20,00,12,12.50
2011,08,20,00,13,12.50
2011,08,20,00,14,12.50
2011,08,20,00,15,12.50
2011,08,20,00,16,12.50
2011,08,20,00,17,12.50
2011,08,20,00,18,12.50
2011,08,20,00,19,12.50
2011,08,20,00,20,12.50
2011,08,20,00,21,12.40
2011,08,20,00,22,12.40
2011,08,20,00,23,12.40
2011,08,20,00,24,12.40
2011,08,20,00,25,12.30
2011,08,20,00,26,12.30
2011,08,20,00,27,12.30
2011,08,20,00,28,12.30
2011,08,20,00,29,12.30
2011,08,20,00,30,12.30
2011,08,20,00,31,12.30
2011,08,20,00,32,12.30
2011,08,20,00,33,12.30
2011,08,20,00,34,12.30
2011,08,20,00,35,12.30
2011,08,20,00,36,12.30
2011,08,20,00,37,12.40
2011,08,20,00,38,12.30
2011,08,20,00,39,12.40
2011,08,20,00,40,12.30
2011,08,20,00,41,12.30
2011,08,20,00,42,12.30
2011,08,20,00,43,12.30
2011,08,20,00,44,12.30
2011,08,20,00,45,12.30
2011,08,20,00,46,12.30
2011,08,20,00,47,12.30
2011,08,20,00,48,12.30
2011,08,20,00,49,12.30
2011,08,20,00,50,12.20
2011,08,20,00,51,12.10
2011,08,20,00,52,12.10
2011,08,20,00,53,12.00
2011,08,20,00,54,11.90
2011,08,20,00,55,11.90
2011,08,20,00,56,11.80
2011,08,20,00,57,11.80
2011,08,20,00,58,11.80
2011,08,20,00,59,11.70
2011,08,20,01,00,11.70
2011,08,20,01,01,11.70
2011,08,20,01,02,11.70
2011,08,20,01,03,11.70
2011,08,20,01,04,11.70
2011,08,20,01,05,11.60
2011,08,20,01,06,11.60
2011,08,20,01,07,11.60
2011,08,20,01,08,11.60
2011,08,20,01,09,11.60
2011,08,20,01,10,11.60
2011,08,20,01,11,11.60
2011,08,20,01,12,11.60
2011,08,20,01,13,11.60
2011,08,20,01,14,11.60
2011,08,20,01,15,11.60
2011,08,20,01,16,11.60
2011,08,20,01,17,11.60
2011,08,20,01,18,11.60
2011,08,20,01,19,11.60
2011,08,20,01,20,11.60
2011,08,20,01,21,11.60
2011,08,20,01,22,11.60
2011,08,20,01,23,11.60
2011,08,20,01,24,11.60
2011,08,20,01,25,11.60
2011,08,20,01,26,11.60
2011,08,20,01,27,11.60
2011,08,20,01,28,11.60
2011,08,20,01,29,11.60
2011,08,20,01,30,11.60
2011,08,20,01,31,11.60
2011,08,20,01,32,11.50
2011,08,20,01,33,11.50
2011,08,20,01,34,11.40
2011,08,20,01,35,11.40
2011,08,20,01,36,11.30
2011,08,20,01,37,11.30
2011,08,20,01,38,11.30
2011,08,20,01,39,11.20
2011,08,20,01,40,11.20
2011,08,20,01,41,11.20
2011,08,20,01,42,11.20
2011,08,20,01,43,11.20
2011,08,20,01,44,11.20
2011,08,20,01,45,11.20
2011,08,20,01,46,11.20
2011,08,20,01,47,11.20
2011,08,20,01,48,11.20
2011,08,20,01,49,11.20
2011,08,20,01,50,11.20
2011,08,20,01,51,11.30
2011,08,20,01,52,11.30
2011,08,20,01,53,11.30
2011,08,20,01,54,11.30
2011,08,20,01,55,11.30
2011,08,20,01,56,11.30
2011,08,20,01,57,11.30
2011,08,20,01,58,11.30
2011,08,20,01,59,11.30
2011,08,20,02,00,11.30
2011,08,20,02,01,11.30
2011,08,20,02,02,11.30
2011,08,20,02,03,11.30
2011,08,20,02,04,11.30
2011,08,20,02,05,11.30
2011,08,20,02,06,11.30
2011,08,20,02,07,11.30
2011,08,20,02,08,11.30
2011,08,20,02,09,11.30
2011,08,20,02,10,11.40
2011,08,20,02,11,11.30
2011,08,20,02,12,11.30
2011,08,20,02,13,11.30
2011,08,20,02,14,11.30
2011,08,20,02,15,11.30
2011,08,20,02,16,11.30
2011,08,20,02,17,11.30
2011,08,20,02,18,11.20
2011,08,20,02,19,11.20
2011,08,20,02,20,11.20
2011,08,20,02,21,11.10
2011,08,20,02,22,11.10
2011,08,20,02,23,11.10
2011,08,20,02,24,11.10
2011,08,20,02,25,11.00
2011,08,20,02,26,11.00
2011,08,20,02,27,11.00
2011,08,20,02,28,11.00
2011,08,20,02,29,10.90
2011,08,20,02,30,10.90
2011,08,20,02,31,10.90
2011,08,20,02,32,10.90
2011,08,20,02,33,10.80
2011,08,20,02,34,10.80
2011,08,20,02,35,10.80
2011,08,20,02,36,10.80
2011,08,20,02,37,10.70
2011,08,20,02,38,10.70
2011,08,20,02,39,10.70
2011,08,20,02,40,10.70
2011,08,20,02,41,10.70
2011,08,20,02,42,10.70
2011,08,20,02,43,10.80
2011,08,20,02,44,10.80
2011,08,20,02,45,10.80
2011,08,20,02,46,10.80
2011,08,20,02,47,10.80
2011,08,20,02,48,10.80
2011,08,20,02,49,10.90
2011,08,20,02,50,10.90
2011,08,20,02,51,10.90
2011,08,20,02,52,10.90
2011,08,20,02,53,10.90
2011,08,20,02,54,10.90
2011,08,20,02,55,10.90
2011,08,20,02,56,11.00
2011,08,20,02,57,11.00
2011,08,20,02,58,11.00
2011,08,20,02,59,11.00
2011,08,20,03,00,11.00
2011,08,20,03,01,10.90
2011,08,20,03,02,10.90
2011,08,20,03,03,10.90
2011,08,20,03,04,10.80
2011,08,20,03,05,10.80
2011,08,20,03,06,10.70
2011,08,20,03,07,10.70
2011,08,20,03,08,10.60
2011,08,20,03,09,10.60
2011,08,20,03,10,10.50
2011,08,20,03,11,10.50
2011,08,20,03,12,10.40
2011,08,20,03,13,10.40
2011,08,20,03,14,10.40
2011,08,20,03,15,10.40
2011,08,20,03,16,10.30
2011,08,20,03,17,10.30
2011,08,20,03,18,10.30
2011,08,20,03,19,10.30
2011,08,20,03,20,10.30
2011,08,20,03,21,10.30
2011,08,20,03,22,10.30
2011,08,20,03,23,10.30
2011,08,20,03,24,10.30
2011,08,20,03,25,10.30
2011,08,20,03,26,10.30
2011,08,20,03,27,10.30
2011,08,20,03,28,10.30
2011,08,20,03,29,10.30
2011,08,20,03,30,10.40
2011,08,20,03,31,10.40
2011,08,20,03,32,10.40
2011,08,20,03,33,10.40
2011,08,20,03,34,10.40
2011,08,20,03,35,10.40
2011,08,20,03,36,10.40
2011,08,20,03,37,10.50
2011,08,20,03,38,10.50
2011,08,20,03,39,10.50
2011,08,20,03,40,10.50
2011,08,20,03,41,10.50
2011,08,20,03,42,10.50
2011,08,20,03,43,10.50
2011,08,20,03,44,10.50
2011,08,20,03,45,10.50
2011,08,20,03,46,10.40
2011,08,20,03,47,10.40
2011,08,20,03,48,10.40
2011,08,20,03,49,10.40
2011,08,20,03,50,10.40
2011,08,20,03,51,10.40
2011,08,20,03,52,10.30
2011,08,20,03,53,10.30
2011,08,20,03,54,10.30
2011,08,20,03,55,10.20
2011,08,20,03,56,10.20
2011,08,20,03,57,10.20
2011,08,20,03,58,10.20
2011,08,20,03,59,10.10
2011,08,20,04,00,10.10
2011,08,20,04,01,10.10
2011,08,20,04,02,10.10
2011,08,20,04,03,10.10
2011,08,20,04,04,10.10
2011,08,20,04,05,10.10
2011,08,20,04,06,10.10
2011,08,20,04,07,10.10
2011,08,20,04,08,10.10
2011,08,20,04,09,10.10
2011,08,20,04,10,10.10
2011,08,20,04,11,10.10
2011,08,20,04,12,10.00
2011,08,20,04,13,10.00
2011,08,20,04,14,10.00
2011,08,20,04,15,10.00
2011,08,20,04,16,10.00
2011,08,20,04,17,9.90
2011,08,20,04,18,9.90
2011,08,20,04,19,9.90
2011,08,20,04,20,9.90
2011,08,20,04,21,9.90
2011,08,20,04,22,9.90
2011,08,20,04,23,9.90
2011,08,20,04,24,9.90
2011,08,20,04,25,9.90
2011,08,20,04,26,9.90
2011,08,20,04,27,9.90
2011,08,20,04,28,9.90
2011,08,20,04,29,9.80
2011,08,20,04,30,9.80
2011,08,20,04,31,9.80
2011,08,20,04,32,9.80
2011,08,20,04,33,9.80
2011,08,20,04,34,9.80
2011,08,20,04,35,9.80
2011,08,20,04,36,9.80
2011,08,20,04,37,9.70
2011,08,20,04,38,9.70
2011,08,20,04,39,9.70
2011,08,20,04,40,9.70
2011,08,20,04,41,9.60
2011,08,20,04,42,9.60
2011,08,20,04,43,9.60
2011,08,20,04,44,9.60
2011,08,20,04,45,9.60
2011,08,20,04,46,9.60
2011,08,20,04,47,9.60
2011,08,20,04,48,9.60
2011,08,20,04,49,9.60
2011,08,20,04,50,9.60
2011,08,20,04,51,9.60
2011,08,20,04,52,9.60
2011,08,20,04,53,9.60
2011,08,20,04,54,9.60
2011,08,20,04,55,9.60
2011,08,20,04,56,9.70
2011,08,20,04,57,9.70
2011,08,20,04,58,9.70
2011,08,20,04,59,9.70
2011,08,20,05,00,9.70
2011,08,20,05,01,9.70
2011,08,20,05,02,9.70
2011,08,20,05,03,9.60
2011,08,20,05,04,9.60
2011,08,20,05,05,9.60
2011,08,20,05,06,9.60
2011,08,20,05,07,9.60
2011,08,20,05,08,9.60
2011,08,20,05,09,9.60
2011,08,20,05,10,9.60
2011,08,20,05,11,9.60
2011,08,20,05,12,9.60
2011,08,20,05,13,9.60
2011,08,20,05,14,9.70
2011,08,20,05,15,9.80
2011,08,20,05,16,9.80
2011,08,20,05,17,9.80
2011,08,20,05,18,9.90
2011,08,20,05,19,9.90
2011,08,20,05,20,9.80
2011,08,20,05,21,9.80
2011,08,20,05,22,9.70
2011,08,20,05,23,9.70
2011,08,20,05,24,9.70
2011,08,20,05,25,9.70
2011,08,20,05,26,9.70
2011,08,20,05,27,9.70
2011,08,20,05,28,9.70
2011,08,20,05,29,9.70
2011,08,20,05,30,9.70
2011,08,20,05,31,9.60
2011,08,20,05,32,9.60
2011,08,20,05,33,9.60
2011,08,20,05,34,9.50
2011,08,20,05,35,9.50
2011,08,20,05,36,9.40
2011,08,20,05,37,9.40
2011,08,20,05,38,9.40
2011,08,20,05,39,9.30
2011,08,20,05,40,9.30
2011,08,20,05,41,9.30
2011,08,20,05,42,9.30
2011,08,20,05,43,9.30
2011,08,20,05,44,9.30
2011,08,20,05,45,9.30
2011,08,20,05,46,9.30
2011,08,20,05,47,9.30
2011,08,20,05,48,9.30
2011,08,20,05,49,9.30
2011,08,20,05,50,9.30
2011,08,20,05,51,9.30
2011,08,20,05,52,9.30
2011,08,20,05,53,9.30
2011,08,20,05,54,9.30
2011,08,20,05,55,9.30
2011,08,20,05,56,9.30
2011,08,20,05,57,9.20
2011,08,20,05,58,9.20
2011,08,20,05,59,9.20
2011,08,20,06,00,9.20
2011,08,20,06,01,9.20
2011,08,20,06,02,9.20
2011,08,20,06,03,9.20
2011,08,20,06,04,9.20
2011,08,20,06,05,9.30
2011,08,20,06,06,9.30
2011,08,20,06,07,9.30
2011,08,20,06,08,9.30
2011,08,20,06,09,9.30
2011,08,20,06,10,9.30
2011,08,20,06,11,9.30
2011,08,20,06,12,9.30
2011,08,20,06,13,9.30
2011,08,20,06,14,9.20
2011,08,20,06,15,9.20
2011,08,20,06,16,9.20
2011,08,20,06,17,9.20
2011,08,20,06,18,9.20
2011,08,20,06,19,9.20
2011,08,20,06,20,9.20
2011,08,20,06,21,9.20
2011,08,20,06,22,9.20
2011,08,20,06,23,9.20
2011,08,20,06,24,9.20
2011,08,20,06,25,9.20
2011,08,20,06,26,9.10
2011,08,20,06,27,9.10
2011,08,20,06,28,9.10
2011,08,20,06,29,9.10
2011,08,20,06,30,9.10
2011,08,20,06,31,9.10
2011,08,20,06,32,9.10
2011,08,20,06,33,9.10
2011,08,20,06,34,9.10
2011,08,20,06,35,9.10
2011,08,20,06,36,9.10
2011,08,20,06,37,9.10
2011,08,20,06,38,9.10
2011,08,20,06,39,9.10
2011,08,20,06,40,9.10
2011,08,20,06,41,9.10
2011,08,20,06,42,9.20
2011,08,20,06,43,9.20
2011,08,20,06,44,9.30
2011,08,20,06,45,9.30
2011,08,20,06,46,9.30
2011,08,20,06,47,9.40
2011,08,20,06,48,9.40
2011,08,20,06,49,9.40
2011,08,20,06,50,9.40
2011,08,20,06,51,9.40
2011,08,20,06,52,9.30
2011,08,20,06,53,9.30
2011,08,20,06,54,9.30
2011,08,20,06,55,9.30
2011,08,20,06,56,9.30
2011,08,20,06,57,9.30
2011,08,20,06,58,9.30
2011,08,20,06,59,9.30
2011,08,20,07,00,9.30
2011,08,20,07,01,9.30
2011,08,20,07,02,9.30
2011,08,20,07,03,9.40
2011,08,20,07,04,9.40
2011,08,20,07,05,9.40
2011,08,20,07,06,9.50
2011,08,20,07,07,9.50
2011,08,20,07,08,9.60
2011,08,20,07,09,9.60
2011,08,20,07,10,9.60
2011,08,20,07,11,9.70
2011,08,20,07,12,9.70
2011,08,20,07,13,9.70
2011,08,20,07,14,9.70
2011,08,20,07,15,9.80
2011,08,20,07,16,9.90
2011,08,20,07,17,10.00
2011,08,20,07,18,10.10
2011,08,20,07,19,10.20
2011,08,20,07,20,10.30
2011,08,20,07,21,10.40
2011,08,20,07,22,10.50
2011,08,20,07,23,10.60
2011,08,20,07,24,10.70
2011,08,20,07,25,10.80
2011,08,20,07,26,10.80
2011,08,20,07,27,10.90
2011,08,20,07,28,11.00
2011,08,20,07,29,11.10
2011,08,20,07,30,11.10
2011,08,20,07,31,11.20
2011,08,20,07,32,11.20
2011,08,20,07,33,11.30
2011,08,20,07,34,11.30
2011,08,20,07,35,11.50
2011,08,20,07,36,11.60
2011,08,20,07,37,11.60
2011,08,20,07,38,11.80
2011,08,20,07,39,11.90
2011,08,20,07,40,12.00
2011,08,20,07,41,12.10
2011,08,20,07,42,12.20
2011,08,20,07,43,12.20
2011,08,20,07,44,12.20
2011,08,20,07,45,12.20
2011,08,20,07,46,12.20
2011,08,20,07,47,12.20
2011,08,20,07,48,12.20
2011,08,20,07,49,12.30
2011,08,20,07,50,12.40
2011,08,20,07,51,12.50
2011,08,20,07,52,12.70
2011,08,20,07,53,12.80
2011,08,20,07,54,12.90
2011,08,20,07,55,13.00
2011,08,20,07,56,13.10
2011,08,20,07,57,13.10
2011,08,20,07,58,13.20
2011,08,20,07,59,13.20
2011,08,20,08,00,13.30
2011,08,20,08,01,13.30
2011,08,20,08,02,13.40
2011,08,20,08,03,13.50
2011,08,20,08,04,13.60
2011,08,20,08,05,13.70
2011,08,20,08,06,13.80
2011,08,20,08,07,13.80
2011,08,20,08,08,13.90
2011,08,20,08,09,14.00
2011,08,20,08,10,14.20
2011,08,20,08,11,14.30
2011,08,20,08,12,14.40
2011,08,20,08,13,14.50
2011,08,20,08,14,14.70
2011,08,20,08,15,14.90
2011,08,20,08,16,15.00
2011,08,20,08,17,15.00
2011,08,20,08,18,15.00
2011,08,20,08,19,15.00
2011,08,20,08,20,15.00
2011,08,20,08,21,15.00
2011,08,20,08,22,15.10
2011,08,20,08,23,15.20
2011,08,20,08,24,15.30
2011,08,20,08,25,15.40
2011,08,20,08,26,15.50
2011,08,20,08,27,15.70
2011,08,20,08,28,15.80
2011,08,20,08,29,15.90
2011,08,20,08,30,16.00
2011,08,20,08,31,16.10
2011,08,20,08,32,16.20
2011,08,20,08,33,16.30
2011,08,20,08,34,16.40
2011,08,20,08,35,16.50
2011,08,20,08,36,16.50
2011,08,20,08,37,16.70
2011,08,20,08,38,16.80
2011,08,20,08,39,16.90
2011,08,20,08,40,17.10
2011,08,20,08,41,17.20
2011,08,20,08,42,17.30
2011,08,20,08,43,17.40
2011,08,20,08,44,17.50
2011,08,20,08,45,17.60
2011,08,20,08,46,17.80
2011,08,20,08,47,17.90
2011,08,20,08,48,18.10
2011,08,20,08,49,18.20
2011,08,20,08,50,18.30
2011,08,20,08,51,18.30
2011,08,20,08,52,18.40
2011,08,20,08,53,18.50
2011,08,20,08,54,18.60
2011,08,20,08,55,18.70
2011,08,20,08,56,18.80
2011,08,20,08,57,18.90
2011,08,20,08,58,19.00
2011,08,20,08,59,19.20
2011,08,20,09,00,19.30
2011,08,20,09,01,19.50
2011,08,20,09,02,19.60
2011,08,20,09,03,19.80
2011,08,20,09,04,19.90
2011,08,20,09,05,20.00
2011,08,20,09,06,20.10
2011,08,20,09,07,20.20
2011,08,20,09,08,20.20
2011,08,20,09,09,20.30
2011,08,20,09,10,20.30
2011,08,20,09,11,20.30
2011,08,20,09,12,20.40
2011,08,20,09,13,20.40
2011,08,20,09,14,20.50
2011,08,20,09,15,20.60
2011,08,20,09,16,20.60
2011,08,20,09,17,20.70
2011,08,20,09,18,20.70
2011,08,20,09,19,20.70
2011,08,20,09,20,20.80
2011,08,20,09,21,20.80
2011,08,20,09,22,20.70
2011,08,20,09,23,20.70
2011,08,20,09,24,20.70
2011,08,20,09,25,20.70
2011,08,20,09,26,20.70
2011,08,20,09,27,20.70
2011,08,20,09,28,20.80
2011,08,20,09,29,20.80
2011,08,20,09,30,20.90
2011,08,20,09,31,20.90
2011,08,20,09,32,21.00
2011,08,20,09,33,21.10
2011,08,20,09,34,21.10
2011,08,20,09,35,21.10
2011,08,20,09,36,21.20
2011,08,20,09,37,21.20
2011,08,20,09,38,21.20
2011,08,20,09,39,21.30
2011,08,20,09,40,21.30
2011,08,20,09,41,21.30
2011,08,20,09,42,21.30
2011,08,20,09,43,21.30
2011,08,20,09,44,21.30
2011,08,20,09,45,21.40
2011,08,20,09,46,21.40
2011,08,20,09,47,21.40
2011,08,20,09,48,21.40
2011,08,20,09,49,21.40
2011,08,20,09,50,21.50
2011,08,20,09,51,21.60
2011,08,20,09,52,21.60
2011,08,20,09,53,21.70
2011,08,20,09,54,21.70
2011,08,20,09,55,21.70
2011,08,20,09,56,21.70
2011,08,20,09,57,21.70
2011,08,20,09,58,21.60
2011,08,20,09,59,21.60
2011,08,20,10,00,21.70
2011,08,20,10,01,21.70
2011,08,20,10,02,21.80
2011,08,20,10,03,21.80
2011,08,20,10,04,21.80
2011,08,20,10,05,21.80
2011,08,20,10,06,21.70
2011,08,20,10,07,21.60
2011,08,20,10,08,21.50
2011,08,20,10,09,21.40
2011,08,20,10,10,21.30
2011,08,20,10,11,21.40
2011,08,20,10,12,21.50
2011,08,20,10,13,21.50
2011,08,20,10,14,21.60
2011,08,20,10,15,21.60
2011,08,20,10,16,21.70
2011,08,20,10,17,21.70
2011,08,20,10,18,21.60
2011,08,20,10,19,21.70
2011,08,20,10,20,21.70
2011,08,20,10,21,21.70
2011,08,20,10,22,21.80
2011,08,20,10,23,21.80
2011,08,20,10,24,21.80
2011,08,20,10,25,21.80
2011,08,20,10,26,21.80
2011,08,20,10,27,21.80
2011,08,20,10,28,21.80
2011,08,20,10,29,21.80
2011,08,20,10,30,21.80
2011,08,20,10,31,21.80
2011,08,20,10,32,21.90
2011,08,20,10,33,21.90
2011,08,20,10,34,21.90
2011,08,20,10,35,22.00
2011,08,20,10,36,22.00
2011,08,20,10,37,21.90
2011,08,20,10,38,21.90
2011,08,20,10,39,21.90
2011,08,20,10,40,22.00
2011,08,20,10,41,22.10
2011,08,20,10,42,22.10
2011,08,20,10,43,22.10
2011,08,20,10,44,22.20
2011,08,20,10,45,22.20
2011,08,20,10,46,22.20
2011,08,20,10,47,22.30
2011,08,20,10,48,22.30
2011,08,20,10,49,22.30
2011,08,20,10,50,22.30
2011,08,20,10,51,22.30
2011,08,20,10,52,22.40
2011,08,20,10,53,22.40
2011,08,20,10,54,22.50
2011,08,20,10,55,22.60
2011,08,20,10,56,22.60
2011,08,20,10,57,22.60
2011,08,20,10,58,22.60
2011,08,20,10,59,22.70
2011,08,20,11,00,22.70
2011,08,20,11,01,22.60
2011,08,20,11,02,22.50
2011,08,20,11,03,22.30
2011,08,20,11,04,22.30
2011,08,20,11,05,22.20
2011,08,20,11,06,22.20
2011,08,20,11,07,22.20
2011,08,20,11,08,22.20
2011,08,20,11,09,22.10
2011,08,20,11,10,22.00
2011,08,20,11,11,22.00
2011,08,20,11,12,21.90
2011,08,20,11,13,22.00
2011,08,20,11,14,22.10
2011,08,20,11,15,22.10
2011,08,20,11,16,22.10
2011,08,20,11,17,22.10
2011,08,20,11,18,22.00
2011,08,20,11,19,21.90
2011,08,20,11,20,22.00
2011,08,20,11,21,22.00
2011,08,20,11,22,22.20
2011,08,20,11,23,22.30
2011,08,20,11,24,22.40
2011,08,20,11,25,22.40
2011,08,20,11,26,22.40
2011,08,20,11,27,22.40
2011,08,20,11,28,22.40
2011,08,20,11,29,22.50
2011,08,20,11,30,22.60
2011,08,20,11,31,22.70
2011,08,20,11,32,22.70
2011,08,20,11,33,22.70
2011,08,20,11,34,22.70
2011,08,20,11,35,22.70
2011,08,20,11,36,22.80
2011,08,20,11,37,22.90
2011,08,20,11,38,22.90
2011,08,20,11,39,22.80
2011,08,20,11,40,22.90
2011,08,20,11,41,22.90
2011,08,20,11,42,23.00
2011,08,20,11,43,23.00
2011,08,20,11,44,23.00
2011,08,20,11,45,22.90
2011,08,20,11,46,22.80
2011,08,20,11,47,22.90
2011,08,20,11,48,23.00
2011,08,20,11,49,23.00
2011,08,20,11,50,23.10
2011,08,20,11,51,23.10
2011,08,20,11,52,23.10
2011,08,20,11,53,23.10
2011,08,20,11,54,23.10
2011,08,20,11,55,23.10
2011,08,20,11,56,23.20
2011,08,20,11,57,23.10
2011,08,20,11,58,23.00
2011,08,20,11,59,23.00
2011,08,20,12,00,23.00
2011,08,20,12,01,23.00
2011,08,20,12,02,23.00
2011,08,20,12,03,23.00
2011,08,20,12,04,23.10
2011,08,20,12,05,23.00
2011,08,20,12,06,23.00
2011,08,20,12,07,23.00
2011,08,20,12,08,22.90
2011,08,20,12,09,22.90
2011,08,20,12,10,22.90
2011,08,20,12,11,23.10
2011,08,20,12,12,23.20
2011,08,20,12,13,23.20
2011,08,20,12,14,23.20
2011,08,20,12,15,23.30
2011,08,20,12,16,23.40
2011,08,20,12,17,23.40
2011,08,20,12,18,23.30
2011,08,20,12,19,23.30
2011,08,20,12,20,23.30
2011,08,20,12,21,23.40
2011,08,20,12,22,23.40
2011,08,20,12,23,23.40
2011,08,20,12,24,23.30
2011,08,20,12,25,23.20
2011,08,20,12,26,23.20
2011,08,20,12,27,23.20
2011,08,20,12,28,23.10
2011,08,20,12,29,23.10
2011,08,20,12,30,23.20
2011,08,20,12,31,23.20
2011,08,20,12,32,23.30
2011,08,20,12,33,23.40
2011,08,20,12,34,23.40
2011,08,20,12,35,23.40
2011,08,20,12,36,23.40
2011,08,20,12,37,23.50
2011,08,20,12,38,23.50
2011,08,20,12,39,23.60
2011,08,20,12,40,23.70
2011,08,20,12,41,23.80
2011,08,20,12,42,23.90
2011,08,20,12,43,23.90
2011,08,20,12,44,23.90
2011,08,20,12,45,24.00
2011,08,20,12,46,24.00
2011,08,20,12,47,24.10
2011,08,20,12,48,24.10
2011,08,20,12,49,24.10
2011,08,20,12,50,24.10
2011,08,20,12,51,24.10
2011,08,20,12,52,24.20
2011,08,20,12,53,24.20
2011,08,20,12,54,24.20
2011,08,20,12,55,24.20
2011,08,20,12,56,24.30
2011,08,20,12,57,24.30
2011,08,20,12,58,24.40
2011,08,20,12,59,24.50
2011,08,20,13,00,24.50
2011,08,20,13,01,24.50
2011,08,20,13,02,24.50
2011,08,20,13,03,24.50
2011,08,20,13,04,24.50
2011,08,20,13,05,24.50
2011,08,20,13,06,24.50
2011,08,20,13,07,24.50
2011,08,20,13,08,24.40
2011,08,20,13,09,24.40
2011,08,20,13,10,24.30
2011,08,20,13,11,24.30
2011,08,20,13,12,24.30
2011,08,20,13,13,24.40
2011,08,20,13,14,24.50
2011,08,20,13,15,24.60
2011,08,20,13,16,24.70
2011,08,20,13,17,24.70
2011,08,20,13,18,24.80
2011,08,20,13,19,24.80
2011,08,20,13,20,24.80
2011,08,20,13,21,24.80
2011,08,20,13,22,24.80
2011,08,20,13,23,24.80
2011,08,20,13,24,24.80
2011,08,20,13,25,24.70
2011,08,20,13,26,24.70
2011,08,20,13,27,24.70
2011,08,20,13,28,24.80
2011,08,20,13,29,25.00
2011,08,20,13,30,25.10
2011,08,20,13,31,25.20
2011,08,20,13,32,25.20
2011,08,20,13,33,25.10
2011,08,20,13,34,25.00
2011,08,20,13,35,25.00
2011,08,20,13,36,24.90
2011,08,20,13,37,24.90
2011,08,20,13,38,25.00
2011,08,20,13,39,25.00
2011,08,20,13,40,25.10
2011,08,20,13,41,25.10
2011,08,20,13,42,25.20
2011,08,20,13,43,25.20
2011,08,20,13,44,25.30
2011,08,20,13,45,25.20
2011,08,20,13,46,25.20
2011,08,20,13,47,25.20
2011,08,20,13,48,25.20
2011,08,20,13,49,25.30
2011,08,20,13,50,25.30
2011,08,20,13,51,25.30
2011,08,20,13,52,25.30
2011,08,20,13,53,25.30
2011,08,20,13,54,25.30
2011,08,20,13,55,25.30
2011,08,20,13,56,25.30
2011,08,20,13,57,25.30
2011,08,20,13,58,25.40
2011,08,20,13,59,25.40
2011,08,20,14,00,25.40
2011,08,20,14,01,25.30
2011,08,20,14,02,25.40
2011,08,20,14,03,25.40
2011,08,20,14,04,25.50
2011,08,20,14,05,25.60
2011,08,20,14,06,25.60
2011,08,20,14,07,25.70
2011,08,20,14,08,25.60
2011,08,20,14,09,25.50
2011,08,20,14,10,25.40
2011,08,20,14,11,25.40
2011,08,20,14,12,25.30
2011,08,20,14,13,25.30
2011,08,20,14,14,25.20
2011,08,20,14,15,25.20
2011,08,20,14,16,25.20
2011,08,20,14,17,25.20
2011,08,20,14,18,25.30
2011,08,20,14,19,25.40
2011,08,20,14,20,25.60
2011,08,20,14,21,25.60
2011,08,20,14,22,25.70
2011,08,20,14,23,25.80
2011,08,20,14,24,25.80
2011,08,20,14,25,25.80
2011,08,20,14,26,25.70
2011,08,20,14,27,25.70
2011,08,20,14,28,25.60
2011,08,20,14,29,25.60
2011,08,20,14,30,25.60
2011,08,20,14,31,25.60
2011,08,20,14,32,25.60
2011,08,20,14,33,25.70
2011,08,20,14,34,25.80
2011,08,20,14,35,25.90
2011,08,20,14,36,25.90
2011,08,20,14,37,26.00
2011,08,20,14,38,26.00
2011,08,20,14,39,26.00
2011,08,20,14,40,26.00
2011,08,20,14,41,25.90
2011,08,20,14,42,25.80
2011,08,20,14,43,25.90
2011,08,20,14,44,25.90
2011,08,20,14,45,25.90
2011,08,20,14,46,25.90
2011,08,20,14,47,25.90
2011,08,20,14,48,25.90
2011,08,20,14,49,26.00
2011,08,20,14,50,26.10
2011,08,20,14,51,26.10
2011,08,20,14,52,26.10
2011,08,20,14,53,26.10
2011,08,20,14,54,26.10
2011,08,20,14,55,26.10
2011,08,20,14,56,26.20
2011,08,20,14,57,26.30
2011,08,20,14,58,26.40
2011,08,20,14,59,26.50
2011,08,20,15,00,26.60
2011,08,20,15,01,26.50
2011,08,20,15,02,26.50
2011,08,20,15,03,26.40
2011,08,20,15,04,26.20
2011,08,20,15,05,26.20
2011,08,20,15,06,26.20
2011,08,20,15,07,26.20
2011,08,20,15,08,26.10
2011,08,20,15,09,26.00
2011,08,20,15,10,26.00
2011,08,20,15,11,26.10
2011,08,20,15,12,26.20
2011,08,20,15,13,26.20
2011,08,20,15,14,26.30
2011,08,20,15,15,26.40
2011,08,20,15,16,26.60
2011,08,20,15,17,26.70
2011,08,20,15,18,26.60
2011,08,20,15,19,26.40
2011,08,20,15,20,26.30
2011,08,20,15,21,26.20
2011,08,20,15,22,26.10
2011,08,20,15,23,26.00
2011,08,20,15,24,26.00
2011,08,20,15,25,26.10
2011,08,20,15,26,26.20
2011,08,20,15,27,26.40
2011,08,20,15,28,26.40
2011,08,20,15,29,26.50
2011,08,20,15,30,26.50
2011,08,20,15,31,26.60
2011,08,20,15,32,26.60
2011,08,20,15,33,26.70
2011,08,20,15,34,26.70
2011,08,20,15,35,26.70
2011,08,20,15,36,26.70
2011,08,20,15,37,26.70
2011,08,20,15,38,26.60
2011,08,20,15,39,26.60
2011,08,20,15,40,26.70
2011,08,20,15,41,26.80
2011,08,20,15,42,27.00
2011,08,20,15,43,27.10
2011,08,20,15,44,27.10
2011,08,20,15,45,27.10
2011,08,20,15,46,27.10
2011,08,20,15,47,27.20
2011,08,20,15,48,27.20
2011,08,20,15,49,27.20
2011,08,20,15,50,27.00
2011,08,20,15,51,27.00
2011,08,20,15,52,27.00
2011,08,20,15,53,27.00
2011,08,20,15,54,27.10
2011,08,20,15,55,27.30
2011,08,20,15,56,27.30
2011,08,20,15,57,27.30
2011,08,20,15,58,27.30
2011,08,20,15,59,27.30
2011,08,20,16,00,27.20
2011,08,20,16,01,27.10
2011,08,20,16,02,27.10
2011,08,20,16,03,27.00
2011,08,20,16,04,26.80
2011,08,20,16,05,26.70
2011,08,20,16,06,26.60
2011,08,20,16,07,26.50
2011,08,20,16,08,26.40
2011,08,20,16,09,26.30
2011,08,20,16,10,26.30
2011,08,20,16,11,26.20
2011,08,20,16,12,26.20
2011,08,20,16,13,26.30
2011,08,20,16,14,26.40
2011,08,20,16,15,26.50
2011,08,20,16,16,26.50
2011,08,20,16,17,26.50
2011,08,20,16,18,26.60
2011,08,20,16,19,26.60
2011,08,20,16,20,26.50
2011,08,20,16,21,26.50
2011,08,20,16,22,26.50
2011,08,20,16,23,26.50
2011,08,20,16,24,26.40
2011,08,20,16,25,26.40
2011,08,20,16,26,26.30
2011,08,20,16,27,26.40
2011,08,20,16,28,26.50
2011,08,20,16,29,26.60
2011,08,20,16,30,26.70
2011,08,20,16,31,26.70
2011,08,20,16,32,26.70
2011,08,20,16,33,26.80
2011,08,20,16,34,26.80
2011,08,20,16,35,26.80
2011,08,20,16,36,26.90
2011,08,20,16,37,26.90
2011,08,20,16,38,26.90
2011,08,20,16,39,26.80
2011,08,20,16,40,26.90
2011,08,20,16,41,26.80
2011,08,20,16,42,26.80
2011,08,20,16,43,26.80
2011,08,20,16,44,26.80
2011,08,20,16,45,26.80
2011,08,20,16,46,26.70
2011,08,20,16,47,26.70
2011,08,20,16,48,26.60
2011,08,20,16,49,26.60
2011,08,20,16,50,26.50
2011,08,20,16,51,26.40
2011,08,20,16,52,26.50
2011,08,20,16,53,26.60
2011,08,20,16,54,26.70
2011,08,20,16,55,26.80
2011,08,20,16,56,26.80
2011,08,20,16,57,26.70
2011,08,20,16,58,26.70
2011,08,20,16,59,26.70
2011,08,20,17,00,26.60
2011,08,20,17,01,26.50
2011,08,20,17,02,26.50
2011,08,20,17,03,26.40
2011,08,20,17,04,26.40
2011,08,20,17,05,26.50
2011,08,20,17,06,26.50
2011,08,20,17,07,26.50
2011,08,20,17,08,26.30
2011,08,20,17,09,26.30
2011,08,20,17,10,26.20
2011,08,20,17,11,26.20
2011,08,20,17,12,26.20
2011,08,20,17,13,26.20
2011,08,20,17,14,26.30
2011,08,20,17,15,26.30
2011,08,20,17,16,26.30
2011,08,20,17,17,26.30
2011,08,20,17,18,26.30
2011,08,20,17,19,26.30
2011,08,20,17,20,26.40
2011,08,20,17,21,26.40
2011,08,20,17,22,26.40
2011,08,20,17,23,26.50
2011,08,20,17,24,26.50
2011,08,20,17,25,26.50
2011,08,20,17,26,26.40
2011,08,20,17,27,26.50